DW4238 Weather Reports


Display with metric or nautical units.
time (UTC)temp
F
wind
direction
speed
MPH
gust
MPH
rain 1hr
in
rain 24hr
in
rain mn
in
humidity
%
barometer
mb
20260504081619 62 186 8.0 10.0 0.00 0.00 0.00 77 1014.8
20260504081122 62 159 8.0 10.0 0.00 0.00 0.00 77 1014.8
20260504080605 62 183 9.0 10.0 0.00 0.00 0.00 76 1014.9
20260504050545 64 171 8.0 10.0 0.00 0.00 0.00 73 1016.9
20260504045542 65 180 8.0 12.0 0.00 0.00 0.00 72 1017.0
20260504044548 65 180 8.0 10.0 0.00 0.00 0.00 72 1017.0
20260504044053 65 171 8.0 11.0 0.00 0.00 0.00 72 1017.0
20260504043644 65 186 8.0 11.0 0.00 0.00 0.00 72 1017.1
20260504043051 65 184 7.0 11.0 0.00 0.00 0.00 72 1017.2
20260504042534 65 175 7.0 12.0 0.00 0.00 0.00 71 1017.3
20260504041603 66 177 9.0 11.0 0.00 0.00 0.00 71 1017.3
20260504041045 66 181 8.0 12.0 0.00 0.00 0.00 71 1017.3
20260504040538 66 178 8.0 12.0 0.00 0.00 0.00 71 1017.4
20260504040139 66 178 7.0 11.0 0.00 0.00 0.00 71 1017.4
20260504035529 66 171 8.0 11.0 0.00 0.00 0.00 70 1017.3
20260504035033 66 175 8.0 11.0 0.00 0.00 0.00 71 1017.3
20260504034646 66 170 9.0 11.0 0.00 0.00 0.00 71 1017.3
20260504034035 67 178 6.0 11.0 0.00 0.00 0.00 70 1017.4
20260504033055 67 184 8.0 11.0 0.00 0.00 0.00 69 1017.3
20260504032538 67 171 7.0 9.0 0.00 0.00 0.00 69 1017.2
20260504031608 67 182 7.0 11.0 0.00 0.00 0.00 68 1017.0
20260504031113 68 180 8.0 10.0 0.00 0.00 0.00 67 1017.1
20260504030623 68 185 8.0 10.0 0.00 0.00 0.00 67 1017.1
20260504030055 68 186 8.0 11.0 0.00 0.00 0.00 66 1017.1
20260504025559 68 171 8.0 11.0 0.00 0.00 0.00 65 1017.0
20260504024617 68 177 10.0 11.0 0.00 0.00 0.00 63 1016.9
20260504024029 67 153 5.0 7.0 0.00 0.00 0.00 62 1016.8
20260504023050 68 202 3.0 5.0 0.00 0.00 0.00 60 1016.8
20260504022603 68 203 3.0 5.0 0.00 0.00 0.00 59 1016.6
20260504021606 69 206 3.0 4.0 0.00 0.00 0.00 59 1016.5
20260504021116 69 206 3.0 4.0 0.00 0.00 0.00 59 1016.6
20260504020137 69 207 3.0 4.0 0.00 0.00 0.00 57 1016.5
20260504015621 70 207 3.0 4.0 0.00 0.00 0.00 57 1016.6
20260504015132 70 208 3.0 4.0 0.00 0.00 0.00 57 1016.6
20260504014534 70 208 3.0 4.0 0.00 0.00 0.00 57 1016.5
20260504014039 70 208 3.0 4.0 0.00 0.00 0.00 56 1016.5
20260504013040 71 208 2.0 3.0 0.00 0.00 0.00 56 1016.4
20260504012554 71 208 2.0 4.0 0.00 0.00 0.00 55 1016.3
20260504011028 72 209 3.0 5.0 0.00 0.00 0.00 53 1016.3
20260504010641 72 209 3.0 5.0 0.00 0.00 0.00 54 1016.3
20260504010038 72 211 3.0 4.0 0.00 0.00 0.00 53 1016.3
20260504005548 72 211 3.0 5.0 0.00 0.00 0.00 53 1016.3
20260504004608 73 212 4.0 5.0 0.00 0.00 0.00 52 1016.4
20260504004059 73 217 3.0 6.0 0.00 0.00 0.00 52 1016.4
20260504003102 73 178 4.0 6.0 0.00 0.00 0.00 50 1016.6
20260504002614 74 172 5.0 6.0 0.00 0.00 0.00 49 1016.6
20260504001615 74 155 5.0 8.0 0.00 0.00 0.00 49 1016.7
20260504001119 74 191 5.0 7.0 0.00 0.00 0.00 49 1016.9
20260504000529 75 186 3.0 7.0 0.00 0.00 0.00 49 1016.9
20260504000120 75 194 4.0 8.0 0.00 0.00 0.00 48 1016.8
20260503235625 76 194 5.0 10.0 0.00 0.00 0.00 45 1016.8
20260503235114 76 138 6.0 10.0 0.00 0.00 0.00 46 1016.8
20260503234532 77 165 8.0 11.0 0.00 0.00 0.00 45 1016.8
20260503234044 77 184 6.0 13.0 0.00 0.00 0.00 46 1016.7
20260503233110 77 177 7.0 12.0 0.00 0.00 0.00 47 1016.8
20260503232601 77 167 8.0 11.0 0.00 0.00 0.00 47 1016.9
20260503231619 77 187 8.0 12.0 0.00 0.00 0.00 45 1017.0
20260503231031 77 188 6.0 10.0 0.00 0.00 0.00 46 1016.9
20260503230051 77 181 9.0 13.0 0.00 0.00 0.00 44 1017.0
20260503225534 78 175 8.0 12.0 0.00 0.00 0.00 46 1017.0
20260503225144 78 198 7.0 14.0 0.00 0.00 0.00 46 1017.0
20260503224546 77 141 10.0 18.0 0.00 0.00 0.00 44 1017.1
20260503224058 78 159 9.0 16.0 0.00 0.00 0.00 45 1017.1
20260503223558 78 172 11.0 15.0 0.00 0.00 0.00 45 1017.2
20260503223030 78 150 9.0 15.0 0.00 0.00 0.00 48 1017.1
20260503222540 78 185 6.0 15.0 0.00 0.00 0.00 48 1017.3
20260503221603 78 161 11.0 15.0 0.00 0.00 0.00 45 1017.4
20260503221113 78 184 7.0 11.0 0.00 0.00 0.00 43 1017.4
20260503220618 78 176 8.0 11.0 0.00 0.00 0.00 43 1017.4
20260503220048 78 157 8.0 11.0 0.00 0.00 0.00 44 1017.6
20260503215553 78 192 7.0 14.0 0.00 0.00 0.00 45 1017.6
20260503214622 78 171 7.0 13.0 0.00 0.00 0.00 44 1017.9
20260503214103 78 220 5.0 12.0 0.00 0.00 0.00 44 1018.0
20260503213612 78 184 7.0 12.0 0.00 0.00 0.00 47 1018.0
20260503213031 78 107 7.0 17.0 0.00 0.00 0.00 46 1017.9
20260503212541 78 126 8.0 17.0 0.00 0.00 0.00 45 1018.0
20260503211540 78 148 6.0 15.0 0.00 0.00 0.00 47 1017.9
20260503211050 78 140 12.0 17.0 0.00 0.00 0.00 45 1018.2
20260503210115 77 139 6.0 14.0 0.00 0.00 0.00 45 1018.5
20260503205603 78 153 10.0 14.0 0.00 0.00 0.00 42 1018.6
20260503205103 78 130 5.0 11.0 0.00 0.00 0.00 44 1018.6
20260503204534 78 150 5.0 11.0 0.00 0.00 0.00 42 1018.7
20260503204039 79 122 7.0 12.0 0.00 0.00 0.00 45 1018.7
20260503203044 79 171 7.0 12.0 0.00 0.00 0.00 45 1018.9
20260503202549 78 89 4.0 9.0 0.00 0.00 0.00 45 1019.0
20260503201547 78 142 4.0 11.0 0.00 0.00 0.00 45 1019.2
20260503201100 78 136 5.0 14.0 0.00 0.00 0.00 43 1019.3
20260503200123 78 126 10.0 13.0 0.00 0.00 0.00 44 1019.3
20260503195533 78 150 4.0 11.0 0.00 0.00 0.00 45 1019.2
20260503195125 78 115 6.0 11.0 0.00 0.00 0.00 43 1019.4
20260503194544 78 146 5.0 10.0 0.00 0.00 0.00 45 1019.5
20260503194029 78 143 5.0 10.0 0.00 0.00 0.00 47 1019.7
20260503193641 77 217 8.0 12.0 0.00 0.00 0.00 42 1019.8
20260503193044 78 184 8.0 12.0 0.00 0.00 0.00 42 1019.9
20260503192546 78 92 5.0 10.0 0.00 0.00 0.00 46 1020.0
20260503191600 77 137 7.0 13.0 0.00 0.00 0.00 43 1020.1
20260503191103 77 150 7.0 16.0 0.00 0.00 0.00 44 1020.1
20260503190124 77 126 6.0 11.0 0.00 0.00 0.00 46 1020.2
20260503185611 77 165 4.0 9.0 0.00 0.00 0.00 47 1020.3
20260503185124 77 157 5.0 14.0 0.00 0.00 0.00 46 1020.3
20260503184544 77 134 9.0 14.0 0.00 0.00 0.00 44 1020.5
20260503184053 77 198 3.0 9.0 0.00 0.00 0.00 46 1020.5
20260503183054 77 140 6.0 11.0 0.00 0.00 0.00 45 1020.7
20260503182544 77 137 5.0 11.0 0.00 0.00 0.00 49 1020.7
20260503181609 77 134 4.0 11.0 0.00 0.00 0.00 48 1020.9
20260503181114 76 144 7.0 14.0 0.00 0.00 0.00 47 1020.9
20260503180624 76 168 7.0 14.0 0.00 0.00 0.00 49 1020.9
20260503180050 76 126 5.0 11.0 0.00 0.00 0.00 49 1021.1
20260503175553 76 160 4.0 14.0 0.00 0.00 0.00 48 1021.1
20260503174613 76 138 4.0 9.0 0.00 0.00 0.00 50 1021.4
20260503174121 76 86 4.0 9.0 0.00 0.00 0.00 52 1021.5
20260503173559 76 115 4.0 9.0 0.00 0.00 0.00 53 1021.6
20260503173030 75 198 4.0 7.0 0.00 0.00 0.00 51 1021.6
20260503172616 75 205 3.0 10.0 0.00 0.00 0.00 52 1021.7
20260503172124 75 216 7.0 10.0 0.00 0.00 0.00 51 1021.8
20260503171530 75 149 2.0 9.0 0.00 0.00 0.00 51 1021.9
20260503171040 75 146 5.0 9.0 0.00 0.00 0.00 52 1022.0
20260503150108 70 195 5.0 7.0 0.00 0.00 0.00 65 1022.2
20260503131045 63 224 4.0 5.0 0.00 0.00 0.00 74 1021.4
20260503130552 62 250 2.0 4.0 0.00 0.00 0.00 76 1021.4
20260503110126 59 212 2.0 4.0 0.00 0.00 0.00 75 1020.2